Date String (YYYY-MM-DD hh:mm:ss) UTC,Instrument flags,Ambient pressure (hPa),Sample flow (lpm),Bypass flow (lpm),Sample temperature (°C),Ambient temperature (°C),ASC tube jacket temperature (°C),LED temperature (°C),Box temperature (°C),Sample RH (%),Span deviation,Mass concentration (μg/m³),Mass concentration (μg/m³),Mass concentration (μg/m³)
DateTimeUTC,F1_M11,P_M11,Q1_M11,Q2_M11,T1_M11,T2_M11,T3_M11,T4_M11,T5_M11,U1_M11,ZSPAN_M11,X0_M11,X2_M11,X1_M11
2021-10-26 09:00:00,,0814.2,5.00,0.00,29.6,28.6,00.0,38.8,31.2,11.9,0000.0,0014.68,0004.73,0003.57
2021-10-26 09:01:00,,0813.9,5.00,0.00,29.6,28.6,00.0,38.8,31.3,12.1,0000.0,0013.71,0004.66,0003.56
2021-10-26 09:02:00,,0813.9,4.99,0.00,29.6,28.6,00.0,38.8,31.3,12.1,0000.0,0013.14,0004.60,0003.56
2021-10-26 09:03:00,,0813.9,5.01,0.00,29.6,28.6,00.0,38.7,31.2,12.2,0000.0,0012.48,0004.59,0003.59
2021-10-26 09:04:00,,0813.9,5.01,0.00,29.6,28.6,00.0,38.7,31.2,12.4,0000.0,0012.71,0004.71,0003.68
2021-10-26 09:05:00,,0814.0,4.99,0.00,29.6,28.6,00.0,38.7,31.3,12.5,0000.0,0013.74,0004.90,0003.78
2021-10-26 09:06:00,,0814.4,5.00,0.00,29.5,28.6,00.0,38.7,31.3,12.7,0000.0,0014.10,0005.12,0003.95
2021-10-26 09:07:00,,0814.2,4.99,0.00,29.5,28.6,00.0,38.7,31.2,12.7,0000.0,0015.56,0005.39,0004.12
2021-10-26 09:08:00,,0813.9,4.99,0.00,29.5,28.6,00.0,38.7,31.2,12.5,0000.0,0015.65,0005.58,0004.24
2021-10-26 09:09:00,,0814.0,5.00,0.00,29.5,28.6,00.0,38.7,31.2,12.5,0000.0,0015.94,0005.70,0004.34
2021-10-26 09:10:00,,0814.2,5.01,0.00,29.5,28.6,00.0,38.7,31.2,12.6,0000.0,0016.09,0005.79,0004.43
2021-10-26 09:11:00,,0814.2,5.00,0.00,29.5,28.6,00.0,38.7,31.2,11.3,0000.0,0016.54,0005.83,0004.47
2021-10-26 09:12:00,,0814.2,4.99,0.00,29.5,28.5,00.0,38.7,31.2,10.9,0000.0,0016.20,0005.78,0004.45
2021-10-26 09:13:00,,0814.3,5.01,0.00,29.5,28.5,00.0,38.7,31.2,10.8,0001.7,0015.80,0005.74,0004.42
2021-10-26 09:14:00,,0814.3,5.00,0.00,29.5,28.5,00.0,38.7,31.2,10.6,0005.2,0015.36,0005.68,0004.38
2021-10-26 09:15:00,,0814.3,5.00,0.00,29.5,28.5,00.0,38.7,31.2,10.5,0002.6,0014.68,0005.58,0004.32
2021-10-26 09:16:00,,0814.2,5.00,0.00,29.5,28.5,00.0,38.6,31.2,10.4,0000.0,0013.54,0005.37,0004.21
2021-10-26 09:17:00,,0814.2,4.98,0.00,29.5,28.5,00.0,38.6,31.2,10.2,0000.0,0012.96,0005.10,0004.03
2021-10-26 09:18:00,,0814.3,5.01,0.00,29.5,28.5,00.0,38.6,31.2,10.2,0000.0,0011.78,0004.85,0003.86
2021-10-26 09:19:00,,0814.3,4.99,0.00,29.5,28.5,00.0,38.6,31.2,10.3,0000.0,0010.75,0004.60,0003.72
2021-10-26 09:20:00,,0814.3,4.99,0.00,29.5,28.5,00.0,38.6,31.2,10.2,0000.0,0009.69,0004.34,0003.60
2021-10-26 09:21:00,,0814.1,5.01,0.00,29.5,28.5,00.0,38.6,31.2,10.0,0000.0,0009.57,0004.09,0003.46
2021-10-26 09:22:00,,0814.1,5.00,0.00,29.5,28.5,00.0,38.6,31.2,10.2,0000.0,0008.90,0003.87,0003.34
2021-10-26 09:23:00,,0814.1,4.99,0.00,29.5,28.5,00.0,38.6,31.1,10.5,0000.0,0009.41,0003.85,0003.32
2021-10-26 09:24:00,,0814.2,5.01,0.00,29.5,28.5,00.0,38.6,31.1,10.8,0000.0,0011.61,0003.81,0003.34
2021-10-26 09:25:00,,0814.2,5.00,0.00,29.4,28.5,00.0,38.6,31.1,11.0,0000.0,0011.95,0003.87,0003.40
2021-10-26 09:26:00,,0813.7,4.99,0.00,29.4,28.5,00.0,38.6,31.1,11.2,0000.0,0012.04,0003.94,0003.48
2021-10-26 09:27:00,,0813.5,4.99,0.00,29.4,28.5,00.0,38.6,31.1,11.1,0000.0,0012.75,0004.02,0003.56
2021-10-26 09:28:00,,0813.6,5.00,0.00,29.4,28.5,00.0,38.6,31.1,11.4,0000.0,0013.29,0004.23,0003.68
2021-10-26 09:29:00,,0813.5,5.01,0.00,29.4,28.5,00.0,38.6,31.1,10.9,-000.5,0013.53,0004.35,0003.76
2021-10-26 09:30:00,,0813.5,5.00,0.00,29.4,28.5,00.0,38.6,31.1,11.0,-002.2,0013.62,0004.42,0003.78
2021-10-26 09:31:00,,0813.5,4.99,0.00,29.4,28.5,00.0,38.6,31.1,11.2,-001.7,0013.63,0004.51,0003.81
2021-10-26 09:32:00,,0813.5,5.01,0.00,29.4,28.5,00.0,38.6,31.1,12.2,-000.6,0013.52,0004.76,0003.99
2021-10-26 09:33:00,,0813.5,5.00,0.00,29.4,28.5,00.0,38.6,31.1,12.3,0003.1,0014.29,0005.12,0004.27
2021-10-26 09:34:00,,0813.5,4.99,0.00,29.4,28.5,00.0,38.6,31.1,11.4,0004.3,0015.51,0005.23,0004.35
2021-10-26 09:35:00,,0813.5,5.00,0.00,29.4,28.5,00.0,38.6,31.1,11.6,0001.5,0014.62,0005.43,0004.43
2021-10-26 09:36:00,,0813.5,5.01,0.00,29.4,28.5,00.0,38.5,31.1,11.4,0002.7,0015.17,0005.55,0004.48
2021-10-26 09:37:00,,0813.5,5.00,0.00,29.4,28.5,00.0,38.5,31.1,11.3,0002.5,0015.46,0005.55,0004.43
2021-10-26 09:38:00,,0813.5,5.00,0.00,29.4,28.5,00.0,38.5,31.1,11.3,0004.7,0015.27,0005.55,0004.38
2021-10-26 09:39:00,,0813.5,5.00,0.00,29.4,28.5,00.0,38.5,31.1,11.3,0005.5,0015.50,0005.44,0004.32
2021-10-26 09:40:00,,0813.4,5.00,0.00,29.4,28.4,00.0,38.5,31.1,11.4,0006.3,0015.74,0005.42,0004.31
2021-10-26 09:41:00,,0813.5,5.01,0.00,29.4,28.4,00.0,38.5,31.1,10.9,0000.0,0016.24,0005.46,0004.35
2021-10-26 09:42:00,,0813.4,5.01,0.00,29.4,28.4,00.0,38.5,31.1,11.2,0000.0,0016.38,0005.48,0004.38
2021-10-26 09:43:00,,0813.5,4.99,0.00,29.4,28.4,00.0,38.5,31.1,11.5,0000.0,0016.08,0005.35,0004.28
2021-10-26 09:44:00,,0813.3,4.99,0.00,29.4,28.4,00.0,38.5,31.1,11.8,0000.0,0015.98,0005.20,0004.16
2021-10-26 09:45:00,,0813.3,5.01,0.00,29.3,28.4,00.0,38.5,31.1,11.9,0000.0,0014.80,0005.32,0004.25
2021-10-26 09:46:00,,0813.3,4.99,0.00,29.3,28.4,00.0,38.5,31.0,12.1,0000.0,0014.56,0005.45,0004.34
2021-10-26 09:47:00,,0813.3,5.01,0.00,29.3,28.4,00.0,38.5,31.0,12.6,0000.0,0014.72,0005.59,0004.48
2021-10-26 09:48:00,,0813.3,5.01,0.00,29.3,28.4,00.0,38.5,31.0,12.3,0004.3,0015.24,0005.80,0004.67
2021-10-26 09:49:00,,0813.3,4.99,0.00,29.3,28.4,00.0,38.5,31.0,12.3,0008.1,0016.40,0006.06,0004.86
2021-10-26 09:50:00,,0813.3,4.99,0.00,29.3,28.4,00.0,38.5,31.1,11.9,0008.4,0016.95,0006.21,0004.98
2021-10-26 09:51:00,,0813.2,5.01,0.00,29.3,28.4,00.0,38.5,31.0,12.0,0008.8,0017.24,0006.31,0005.04
2021-10-26 09:52:00,,0813.1,4.99,0.00,29.3,28.3,00.0,38.4,31.0,12.1,0009.9,0017.00,0006.44,0005.13
2021-10-26 09:53:00,,0813.2,5.00,0.00,29.3,28.3,00.0,38.4,31.0,12.0,0010.2,0017.65,0006.65,0005.25
2021-10-26 09:54:00,,0813.2,5.00,0.00,29.3,28.3,00.0,38.4,31.0,11.0,0005.6,0017.85,0006.67,0005.25
2021-10-26 09:55:00,,0813.2,5.01,0.00,29.3,28.3,00.0,38.4,31.0,11.2,0003.5,0017.48,0006.54,0005.15
2021-10-26 09:56:00,,0813.1,5.00,0.00,29.3,28.4,00.0,38.4,31.0,12.3,0002.4,0017.87,0006.54,0005.15
2021-10-26 09:57:00,,0813.1,5.00,0.00,29.3,28.4,00.0,38.4,31.0,11.7,0000.4,0018.17,0006.46,0005.16
2021-10-26 09:58:00,,0813.1,5.01,0.00,29.3,28.4,00.0,38.4,31.0,11.1,-000.2,0017.15,0006.19,0004.97
2021-10-26 09:59:00,,0813.2,5.01,0.00,29.3,28.4,00.0,38.4,31.0,10.8,0000.3,0016.19,0005.88,0004.75
